#timestamp,LO_Frequency,Hit,StdDev 
1605348015.7,286046999.9,N
1605348035.5,286047002.4,N
1605348055.4,286047000.2,N
1605348075.2,286046998.8,N
1605348095.0,286046999.5,N
1605348095.9,286046999.5,N
1605348115.8,286046998.6,N
1605348135.6,286046999.1,N
1605348155.4,286046997.1,N
1605348175.3,286046998.7,N
1605348195.1,286046999.1,N
1605348215.9,286046997.8,N
1605348235.7,286046996.9,N
1605348255.5,286047001.1,N
1605348275.4,286046999.3,N
1605348295.2,286046997.6,N
1605348315.0,286046997.8,N
1605348315.9,286046997.8,N
1605348335.8,286046995.5,N
1605348355.6,286046995.8,N
1605348375.5,286046993.4,N
1605348395.3,286046996.2,N
1605348415.1,286046996.4,N
1605348435.9,286046993.3,N
1605348455.7,286046993.8,N
1605348475.5,286046995.1,N
1605348495.4,286046995.4,N
1605348515.2,286046997.4,N
1605348535.1,286046995.6,N
1605348536.0,286046995.6,N
1605348555.8,286046995.5,N
1605348575.6,286046993.7,N
1605348595.5,286046993.4,Y
1605348615.3,286046996.5,P
1605348635.1,286046996.8,P
1605348655.9,286046997.6,P
1605348675.7,286046999.5,N
1605348695.6,286046996.5,Y
1605348715.4,286047000.4,P
1605348735.2,286047000.7,N
1605348755.1,286047001.2,N
1605348756.0,286047001.2,N
1605348775.8,286046999.3,N
1605348795.7,286046998.7,N
1605348815.5,286046998.6,N
1605348835.3,286047001.2,N
1605348855.2,286047001.0,N
1605348875.9,286047000.1,N
1605348895.7,286047003.3,N
1605348915.6,286047005.7,Y
1605348935.4,286047002.9,P
1605348955.3,286047004.1,P
1605348975.1,286047001.6,N
1605348976.0,286047001.6,N
1605348995.8,286047000.3,N
1605349015.7,286047000.0,N
1605349035.5,286046998.2,N
1605349055.3,286047000.4,N
1605349075.2,286047000.9,N
1605349095.0,286047002.7,N
1605349095.9,286047002.7,N
1605349115.8,286047002.2,N
1605349135.6,286047002.0,N
1605349155.4,286047001.8,N
1605349175.3,286047002.6,N
1605349195.1,286047001.8,N
1605349215.8,286047002.1,N
1605349235.7,286047004.2,Y
1605349255.5,286046999.8,P
1605349275.4,286047002.5,N
1605349295.2,286047003.7,P
1605349315.0,286047000.2,N
1605349315.9,286047000.2,N
1605349335.8,286046998.6,N
1605349355.6,286047000.6,N
1605349375.4,286047002.2,N
1605349395.3,286047000.1,N
1605349415.1,286047002.6,N
1605349435.9,286047003.7,N
1605349455.7,286047003.5,N
1605349475.5,286047006.6,Y
1605349495.4,286047006.7,P
1605349515.2,286047008.1,P
1605349535.0,286047009.4,P
1605349536.0,286047009.4,Y
1605349555.8,286047005.9,P
1605349575.6,286047003.0,P
1605349595.5,286047005.5,P
1605349615.3,286047005.3,Y
1605349635.1,286047001.0,P
1605349655.9,286046998.6,N
1605349675.7,286046998.5,N
1605349695.5,286047000.6,N
1605349715.4,286046999.0,N
1605349735.2,286046996.9,N
1605349755.1,286046999.2,N
1605349756.0,286046999.2,N
1605349775.8,286046996.7,N
1605349795.6,286046996.8,N
1605349815.5,286046998.8,N
1605349835.3,286046996.6,N
1605349855.1,286046996.9,N
1605349875.9,286046999.4,N
1605349895.7,286046997.4,N
1605349915.6,286046998.0,N
1605349935.4,286046999.5,N
1605349955.2,286046997.1,N
1605349975.1,286046997.4,N
1605349976.0,286046997.4,N
1605349995.8,286046997.0,N
1605350015.6,286046999.1,N
1605350035.5,286046999.0,N
1605350055.3,286046996.5,N
1605350075.2,286046997.2,N
1605350095.9,286046994.9,N
1605350115.7,286046995.3,N
1605350135.6,286046997.5,N
1605350155.4,286046997.0,N
1605350175.2,286046999.6,N
1605350195.1,286046995.3,Y
1605350196.0,286046995.3,P
1605350215.8,286047001.0,N
1605350235.7,286046999.1,N
1605350255.5,286046999.6,N
1605350275.3,286046999.3,N
1605350295.2,286046995.1,N
1605350315.0,286046997.9,N
1605350315.9,286046997.9,N
1605350335.7,286046995.3,N
1605350355.6,286046995.5,N
1605350375.4,286046994.4,N
1605350395.3,286046994.6,N
1605350415.1,286046994.6,N
1605350416.0,286046994.6,N
1605350435.8,286046994.5,N
1605350455.7,286046990.7,Y
1605350475.5,286046995.4,P
1605350495.3,286046993.7,P
1605350515.2,286046994.6,P
1605350535.0,286046992.1,Y
1605350535.9,286046992.1,P
1605350555.8,286046995.6,N
1605350575.6,286046995.2,P
1605350595.4,286046997.3,N
1605350615.3,286046999.6,N
1605350635.1,286046999.6,N
1605350655.8,286046997.6,N
1605350675.7,286046998.0,N
1605350695.5,286046995.0,N
1605350715.4,286046997.8,N
1605350735.2,286046994.9,N
1605350755.0,286046996.5,N
1605350755.9,286046996.5,N
1605350775.8,286046998.0,N
1605350795.6,286046995.3,N
1605350815.4,286046995.1,N
1605350835.3,286046994.9,N
1605350855.1,286046999.1,N
1605350875.9,286046999.1,N
1605350895.7,286047001.1,N
1605350915.5,286047000.2,N
1605350935.4,286047000.5,N
1605350955.2,286046998.1,N
1605350975.0,286046998.5,N
1605350975.9,286046998.5,N
1605350995.8,286046997.6,N
1605351015.6,286046994.9,N
1605351035.5,286046997.2,N
1605351055.3,286046999.0,N
1605351075.1,286046998.7,N
1605351095.9,286046995.5,N
1605351115.7,286046995.0,N
1605351135.5,286046996.6,N
1605351155.4,286046998.4,N
1605351175.2,286046994.9,N
1605351195.0,286046995.0,N
1605351196.0,286046995.0,N
1605351215.8,286046995.7,N
1605351235.6,286046995.5,N
1605351255.5,286046994.0,Y
1605351275.3,286046995.3,P
1605351295.1,286046997.9,N
1605351315.9,286046997.9,N
1605351335.7,286046996.5,Y
1605351355.6,286047004.0,P
1605351375.4,286047004.2,N
1605351395.2,286047003.1,N
1605351415.1,286047004.7,N
1605351416.0,286047004.7,N
1605351435.8,286047007.1,N
1605351455.6,286047009.1,Y
1605351475.5,286047006.6,P
1605351495.3,286047006.1,P
1605351515.2,286047007.0,P
1605351535.9,286047007.0,Y
1605351555.7,286046999.7,P
1605351575.6,286046996.5,N
1605351595.4,286046997.1,N
